| time (UTC) | temp F | wind direction | speed knots | gust knots | rain 1hr in | rain 24hr in | rain mn in | humidity % | barometer mb |
| 20260504040100 | 66 | 119 | 3.5 | 10.4 | 0.00 | 0.28 | 0.27 | 67 | 1015.0 |
| 20260504034608 | 67 | 188 | 2.6 | 7.8 | 0.00 | 0.28 | 0.27 | 67 | 1015.0 |
| 20260504033040 | 66 | 75 | 2.6 | 7.0 | 0.00 | 0.28 | 0.27 | 67 | 1015.0 |
| 20260504031539 | 66 | 184 | 4.3 | 7.8 | 0.00 | 0.28 | 0.27 | 69 | 1015.0 |
| 20260504030037 | 65 | 204 | 2.6 | 7.8 | 0.00 | 0.28 | 0.27 | 71 | 1015.1 |
| 20260504024534 | 65 | 158 | 2.6 | 8.7 | 0.00 | 0.28 | 0.27 | 72 | 1015.2 |
| 20260504023032 | 64 | 184 | 1.7 | 6.1 | 0.01 | 0.28 | 0.27 | 76 | 1015.3 |
| 20260504021528 | 63 | 167 | 4.3 | 11.3 | 0.01 | 0.28 | 0.27 | 77 | 1015.4 |
| 20260504020027 | 63 | 121 | 1.7 | 6.1 | 0.01 | 0.28 | 0.27 | 81 | 1015.3 |
| 20260504014525 | 63 | 171 | 2.6 | 10.4 | 0.05 | 0.28 | 0.27 | 83 | 1015.2 |
| 20260504013030 | 62 | 115 | 1.7 | 7.0 | 0.04 | 0.28 | 0.26 | 86 | 1015.0 |
| 20260504011523 | 61 | 223 | 4.3 | 8.7 | 0.05 | 0.28 | 0.26 | 88 | 1015.1 |
| 20260504010022 | 62 | 215 | 1.7 | 11.3 | 0.06 | 0.28 | 0.26 | 86 | 1015.0 |
| 20260504004520 | 62 | 150 | 2.6 | 8.7 | 0.02 | 0.24 | 0.22 | 87 | 1014.9 |
| 20260504003017 | 61 | 198 | 2.6 | 7.8 | 0.02 | 0.24 | 0.22 | 87 | 1014.7 |
| 20260504001515 | 62 | 206 | 3.5 | 8.7 | 0.00 | 0.23 | 0.20 | 89 | 1014.6 |
| 20260504000012 | 61 | 160 | 1.7 | 6.1 | 0.00 | 0.23 | 0.20 | 91 | 1014.5 |
| 20260503234509 | 60 | 191 | 0.9 | 7.0 | 0.00 | 0.23 | 0.20 | 92 | 1014.4 |
| 20260503233005 | 59 | 122 | 0.0 | 6.1 | 0.00 | 0.23 | 0.20 | 93 | 1014.2 |
| 20260503231505 | 59 | 216 | 0.9 | 3.5 | 0.02 | 0.23 | 0.20 | 93 | 1014.1 |
| 20260503230000 | 59 | 226 | 0.9 | 2.6 | 0.06 | 0.23 | 0.20 | 93 | 1013.8 |
| 20260503224559 | 58 | 237 | 0.0 | 1.7 | 0.06 | 0.23 | 0.20 | 93 | 1013.6 |
| 20260503223058 | 58 | 249 | 0.0 | 6.1 | 0.06 | 0.23 | 0.20 | 92 | 1013.4 |
| 20260503221557 | 59 | 221 | 0.0 | 3.5 | 0.05 | 0.21 | 0.19 | 92 | 1013.4 |
| 20260503220055 | 59 | 232 | 2.6 | 7.0 | 0.01 | 0.17 | 0.15 | 92 | 1013.0 |
| 20260503214601 | 59 | 228 | 0.9 | 3.5 | 0.01 | 0.17 | 0.15 | 91 | 1012.7 |
| 20260503213052 | 58 | 249 | 0.9 | 3.5 | 0.01 | 0.17 | 0.15 | 91 | 1012.6 |
| 20260503211554 | 58 | 209 | 0.0 | 3.5 | 0.00 | 0.17 | 0.14 | 91 | 1012.6 |
| 20260503210050 | 58 | 212 | 0.9 | 5.2 | 0.02 | 0.17 | 0.14 | 91 | 1012.5 |
| 20260503204557 | 58 | 221 | 0.9 | 3.5 | 0.02 | 0.17 | 0.14 | 91 | 1012.4 |
| 20260503203051 | 58 | 230 | 1.7 | 4.3 | 0.02 | 0.17 | 0.14 | 91 | 1012.2 |
| 20260503201548 | 58 | 265 | 0.0 | 4.3 | 0.03 | 0.17 | 0.14 | 90 | 1012.2 |
| 20260503200048 | 58 | 232 | 0.9 | 5.2 | 0.04 | 0.15 | 0.13 | 90 | 1011.9 |
| 20260503194548 | 58 | 180 | 0.9 | 5.2 | 0.03 | 0.14 | 0.12 | 89 | 1011.9 |
| 20260503193105 | 59 | 233 | 2.6 | 7.0 | 0.03 | 0.14 | 0.12 | 89 | 1011.9 |
| 20260503191550 | 59 | 256 | 2.6 | 7.8 | 0.02 | 0.13 | 0.11 | 87 | 1011.7 |
| 20260503190059 | 59 | 220 | 2.6 | 9.6 | 0.00 | 0.11 | 0.09 | 87 | 1011.6 |
| 20260503184543 | 59 | 243 | 0.9 | 7.8 | 0.00 | 0.11 | 0.09 | 88 | 1011.5 |
| 20260503183055 | 58 | 169 | 0.9 | 7.0 | 0.00 | 0.11 | 0.09 | 89 | 1011.5 |
| 20260503181540 | 58 | 176 | 1.7 | 4.3 | 0.00 | 0.11 | 0.09 | 90 | 1011.5 |
| 20260503180050 | 57 | 186 | 0.9 | 4.3 | 0.00 | 0.11 | 0.09 | 91 | 1011.5 |
| 20260503174535 | 57 | 256 | 0.9 | 7.0 | 0.02 | 0.11 | 0.09 | 91 | 1011.7 |
| 20260503173039 | 57 | 236 | 0.0 | 4.3 | 0.06 | 0.11 | 0.09 | 92 | 1011.8 |
| 20260503171540 | 57 | 234 | 0.9 | 4.3 | 0.07 | 0.11 | 0.09 | 92 | 1011.8 |
| 20260503081620 | 62 | 215 | 1.7 | 9.6 | 0.00 | 0.00 | 0.00 | 75 | 1011.3 |
| 20260503080104 | 62 | 240 | 3.5 | 11.3 | 0.00 | 0.00 | 0.00 | 74 | 1011.1 |
| 20260503071609 | 62 | 265 | 1.7 | 4.3 | 0.00 | 0.02 | 0.00 | 74 | 1011.2 |
| 20260503060103 | 65 | 213 | 3.5 | 9.6 | 0.00 | 0.05 | 0.00 | 58 | 1010.8 |
| 20260503054557 | 67 | 241 | 3.5 | 11.3 | 0.00 | 0.05 | 0.00 | 59 | 1010.7 |
| 20260503053053 | 66 | 200 | 3.5 | 14.8 | 0.00 | 0.05 | 0.00 | 56 | 1010.7 |
| 20260503051558 | 66 | 183 | 3.5 | 9.6 | 0.00 | 0.08 | 0.00 | 60 | 1010.7 |
| 20260503050051 | 67 | 260 | 3.5 | 13.0 | 0.00 | 0.08 | 0.00 | 56 | 1010.7 |
| 20260503044550 | 66 | 206 | 4.3 | 12.2 | 0.00 | 0.08 | 0.00 | 58 | 1010.6 |
| 20260503043052 | 66 | 275 | 4.3 | 9.6 | 0.00 | 0.08 | 0.00 | 57 | 1010.6 |
| 20260503041548 | 67 | 234 | 5.2 | 13.9 | 0.00 | 0.10 | 0.00 | 58 | 1010.6 |